TimeCDT,TemperatureF,Dew PointF,Humidity,Sea Level PressureIn,VisibilityMPH,Wind Direction,Wind SpeedMPH,Gust SpeedMPH,PrecipitationIn,Events,Conditions,WindDirDegrees,DateUTC
12:51 AM,64.9,60.1,84,29.64,10.0,ENE,4.6,-,0.01,,Overcast,70,2013-06-13 05:51:00
1:43 AM,64.4,60.8,88,29.67,10.0,North,6.9,-,N/A,,Mostly Cloudy,360,2013-06-13 06:43:00
1:51 AM,64.9,61.0,87,29.65,10.0,NNW,8.1,-,N/A,,Overcast,340,2013-06-13 06:51:00
2:25 AM,62.6,60.8,94,29.69,10.0,North,11.5,-,N/A,,Overcast,350,2013-06-13 07:25:00
2:51 AM,62.1,59.0,90,29.69,6.0,NNW,11.5,-,N/A,,Overcast,330,2013-06-13 07:51:00
3:51 AM,63.0,60.1,90,29.72,5.0,NNW,8.1,-,N/A,,Overcast,340,2013-06-13 08:51:00
4:25 AM,64.4,57.2,77,29.76,10.0,NNW,15.0,20.7,N/A,,Overcast,340,2013-06-13 09:25:00
4:40 AM,64.4,57.2,77,29.76,10.0,North,10.4,19.6,N/A,,Overcast,350,2013-06-13 09:40:00
4:51 AM,64.0,57.0,78,29.74,10.0,North,12.7,19.6,N/A,,Overcast,350,2013-06-13 09:51:00
5:04 AM,62.6,55.4,77,29.76,10.0,North,11.5,23.0,N/A,,Mostly Cloudy,350,2013-06-13 10:04:00
5:31 AM,62.6,53.6,72,29.78,10.0,North,15.0,25.3,N/A,,Overcast,350,2013-06-13 10:31:00
5:51 AM,62.1,53.1,72,29.77,10.0,North,16.1,21.9,N/A,,Overcast,360,2013-06-13 10:51:00
6:41 AM,62.6,51.8,68,29.82,10.0,North,16.1,21.9,N/A,,Scattered Clouds,10,2013-06-13 11:41:00
6:51 AM,62.1,51.1,67,29.81,10.0,North,13.8,-,N/A,,Scattered Clouds,360,2013-06-13 11:51:00
7:20 AM,62.6,51.8,68,29.83,10.0,North,16.1,-,N/A,,Mostly Cloudy,10,2013-06-13 12:20:00
7:37 AM,62.6,51.8,68,29.84,10.0,North,12.7,-,N/A,,Scattered Clouds,10,2013-06-13 12:37:00
7:51 AM,64.0,54.0,70,29.83,10.0,North,12.7,-,N/A,,Scattered Clouds,10,2013-06-13 12:51:00
8:51 AM,66.9,55.9,68,29.87,10.0,North,12.7,-,N/A,,Clear,10,2013-06-13 13:51:00
9:51 AM,69.1,48.9,49,29.89,10.0,NNE,17.3,24.2,N/A,,Clear,20,2013-06-13 14:51:00
10:51 AM,70.0,52.0,53,29.92,10.0,North,15.0,-,N/A,,Clear,10,2013-06-13 15:51:00
11:51 AM,71.1,53.1,53,29.93,10.0,NNE,16.1,-,N/A,,Clear,20,2013-06-13 16:51:00
12:51 PM,71.1,54.0,55,29.96,10.0,North,18.4,-,N/A,,Partly Cloudy,360,2013-06-13 17:51:00
1:51 PM,71.1,52.0,51,29.97,10.0,North,16.1,27.6,N/A,,Partly Cloudy,360,2013-06-13 18:51:00
2:51 PM,72.0,51.1,48,29.97,10.0,NNE,18.4,-,N/A,,Partly Cloudy,30,2013-06-13 19:51:00
3:51 PM,70.0,51.1,51,29.98,10.0,NNE,13.8,23.0,N/A,,Partly Cloudy,20,2013-06-13 20:51:00
4:51 PM,71.1,52.0,51,29.98,10.0,NE,15.0,-,N/A,,Partly Cloudy,40,2013-06-13 21:51:00
5:51 PM,69.1,51.1,53,29.98,10.0,NE,15.0,-,N/A,,Partly Cloudy,40,2013-06-13 22:51:00
6:51 PM,66.9,51.1,57,29.99,10.0,NE,10.4,-,N/A,,Partly Cloudy,40,2013-06-13 23:51:00
7:51 PM,64.0,50.0,60,30.02,10.0,NNE,11.5,-,N/A,,Clear,30,2013-06-14 00:51:00
8:51 PM,63.0,48.9,60,30.02,10.0,North,8.1,-,N/A,,Partly Cloudy,10,2013-06-14 01:51:00
9:51 PM,62.1,48.9,62,30.04,10.0,North,10.4,-,N/A,,Clear,10,2013-06-14 02:51:00
10:51 PM,60.1,48.9,67,30.04,10.0,North,12.7,-,N/A,,Clear,360,2013-06-14 03:51:00
11:51 PM,59.0,48.9,69,30.04,10.0,NNE,11.5,-,N/A,,Clear,20,2013-06-14 04:51:00